Find Starlink 37257

NORAD ID: 68970 Int'l Des: 2026-099 Owner: SPXS Country: US Constellation: starlink operational
LEOCIRCULAR

現在のビュー

3D地球を読み込み中...

About Starlink 37257

Starlink 37257 (NORAD 68970) is a starlink constellation satellite (v2 mini) launched May 1, 2026 by SPXS of US. It operates in LEO, CIRCULAR orbit with a mass of 575.00 kg.

Starlink 37257について

説明を読み込み中...

次回通過

Passes for default location (London). Set your location on the main map for personalized predictions.

高度履歴

Loading altitude history...

軌道要素

1 68970U 26099V 26170.46605454 .00028086 00000-0 81263-3 0 9993
2 68970 53.1605 150.5373 0001152 90.4360 269.6775 15.35416463 7622
Epoch: Jun 19, 2026 • Age: 24 hours

現在のステータス

高度 463.3 km
速度 7.64 km/s
衛星直下点 -13.42°S, 104.72°W
打ち上げ日 May 1, 2026
運用期間 0.1 years
タイプ internet

技術仕様

分類 Payload
質量 575.00 kg
乾燥質量 530.00 kg
総質量 575.00 kg
長さ 0.30 m
直径 4.10 m
スパン 29.00 m
形状 Box + pan
製造者 SPXS
バスタイプ Starlink V2MO
フェーズステータス In Orbit
所有者/国 SPXS/US

Most Searched